Weather History for Shreveport, LA

Change the Weather History Date:

Saturday, September 28, 2013

  Actual Average Record
Temperature  
Mean Temperature 79 °F 72 °F  
Max Temperature 91 °F 84 °F 103 °F (1953)
Min Temperature 66 °F 61 °F 44 °F (1909)
Degree Days  
Heating Degree Days 0 1  
Month to date heating degree days 0 2  
Since 1 July heating degree days 0 2  
Cooling Degree Days 14 8  
Month to date cooling degree days 491 347  
Year to date cooling degree days 2536 2309  
Growing Degree Days 28 (Base 50)    
Moisture  
Dew Point 68 °F    
Average Humidity 71    
Maximum Humidity 94    
Minimum Humidity 47    
Precipitation  
Precipitation 3.46 in 0.12 in 4.01 in (1891)
Month to date precipitation 8.12 2.91  
Year to date precipitation 35.08 36.90  
Snow  
Snow 0.00 in - - ()
Month to date snowfall 0.0  
Since 1 July snowfall 0.0  
Since 1 September snowfall 0.0  
Snow Depth 0.00 in    
Sea Level Pressure  
Sea Level Pressure 29.98 in    
Wind  
Wind Speed 9 mph (ESE)    
Max Wind Speed 25 mph    
Max Gust Speed 29 mph    
Visibility 8 miles    
Events Rain , Thunderstorm    
T = Trace of Precipitation, MM = Missing Value Source: NWS Daily Summary

Daily Weather History Graph

Daily Weather History Graph

Search for Another Location

Airport:

Trip Planner

Search our weather history database for the weather conditions in past years. The results will help you decide how hot, cold, wet, or windy it might be!

Date:

Astronomy

Sep. 28, 2013 Rise Set
Actual Time 7:07 AM CDT 7:03 PM CDT
Civil Twilight 6:43 AM CDT 7:28 PM CDT
Nautical Twilight 6:14 AM CDT 7:56 PM CDT
Astronomical Twilight 5:45 AM CDT 8:25 PM CDT
Moon 1:12 AM CDT (9/28) 3:07 PM CDT (9/28)
Length of Visible Light 12h 45m
Length of Day
11h 56m
Waning Crescent, 36% of the Moon is Illuminated
Sep 28
Waning Crescent
Oct 4
New
Oct 11
First Quarter
Oct 18
Full
Oct 26
Last Quarter

Hourly Weather History & Observations

Time (CDT) Temp. Heat Index Dew Point Humidity Pressure Visibility Wind Dir Wind Speed Gust Speed Precip Events Conditions
12:56 AM 73.0 °F - 63.0 °F 71% 29.94 in 10.0 mi SSE 12.7 mph - N/A   Clear
1:56 AM 72.0 °F - 63.0 °F 73% 29.93 in 10.0 mi SSE 6.9 mph - N/A   Clear
2:56 AM 71.1 °F - 63.0 °F 75% 29.94 in 10.0 mi SSE 4.6 mph - N/A   Clear
3:56 AM 69.1 °F - 63.0 °F 81% 29.94 in 10.0 mi SSE 3.5 mph - N/A   Clear
4:56 AM 69.1 °F - 63.0 °F 81% 29.96 in 10.0 mi Calm Calm - N/A   Clear
5:56 AM 68.0 °F - 64.0 °F 87% 29.98 in 10.0 mi ESE 3.5 mph - N/A   Scattered Clouds
6:56 AM 68.0 °F - 64.0 °F 87% 29.99 in 10.0 mi SE 4.6 mph - N/A   Scattered Clouds
7:56 AM 70.0 °F - 64.9 °F 84% 30.01 in 10.0 mi SE 4.6 mph - N/A   Scattered Clouds
8:56 AM 75.0 °F - 66.9 °F 76% 30.01 in 10.0 mi SSE 16.1 mph 20.7 mph N/A   Scattered Clouds
9:56 AM 78.1 °F - 66.9 °F 68% 30.03 in 10.0 mi SSE 13.8 mph - N/A   Overcast
10:56 AM 81.0 °F 83.8 °F 68.0 °F 65% 30.02 in 10.0 mi SSE 18.4 mph 23.0 mph N/A   Mostly Cloudy
11:56 AM 87.1 °F 90.6 °F 68.0 °F 53% 30.01 in 10.0 mi SSE 16.1 mph 23.0 mph N/A   Scattered Clouds
12:56 PM 88.0 °F 91.4 °F 68.0 °F 51% 29.99 in 10.0 mi SE 11.5 mph 21.9 mph N/A   Scattered Clouds
1:56 PM 90.0 °F 93.6 °F 68.0 °F 48% 29.96 in 10.0 mi SSE 12.7 mph 23.0 mph N/A   Scattered Clouds
2:56 PM 91.0 °F 95.2 °F 68.0 °F 47% 29.93 in 10.0 mi SSE 17.3 mph 23.0 mph N/A   Scattered Clouds
3:56 PM 89.1 °F 92.9 °F 68.0 °F 50% 29.91 in 10.0 mi SSE 15.0 mph 24.2 mph N/A   Mostly Cloudy
4:56 PM 88.0 °F 90.7 °F 66.9 °F 49% 29.91 in 10.0 mi SSE 11.5 mph 21.9 mph N/A   Mostly Cloudy
5:56 PM 87.1 °F 89.9 °F 66.9 °F 51% 29.91 in 10.0 mi SE 9.2 mph 18.4 mph N/A   Mostly Cloudy
6:56 PM 84.9 °F 88.2 °F 68.0 °F 57% 29.94 in 10.0 mi SSE 8.1 mph - N/A   Mostly Cloudy
6:58 PM 84.2 °F 87.3 °F 68.0 °F 58% 29.95 in 10.0 mi SSE 9.2 mph 16.1 mph N/A Thunderstorm Thunderstorm
7:39 PM 77.0 °F - 73.4 °F 89% 29.98 in 7.0 mi NNW 17.3 mph 23.0 mph 0.01 in Rain , Thunderstorm Thunderstorms and Rain
7:56 PM 75.9 °F - 73.9 °F 94% 29.97 in 4.0 mi NNW 12.7 mph - 0.13 in Rain , Thunderstorm Thunderstorms and Rain
8:56 PM 75.0 °F - 73.0 °F 94% 30.00 in 3.0 mi ENE 4.6 mph - 0.49 in Rain , Thunderstorm Heavy Thunderstorms and Rain
9:01 PM 75.2 °F - 73.4 °F 94% 30.01 in 2.5 mi NE 4.6 mph - 0.07 in Rain , Thunderstorm Heavy Thunderstorms and Rain
9:09 PM 73.4 °F - 73.4 °F 100% 30.02 in 2.5 mi NNE 6.9 mph - 0.20 in Rain , Thunderstorm Heavy Thunderstorms and Rain
9:46 PM 73.4 °F - 73.4 °F 100% 30.03 in 1.5 mi North 3.5 mph - 1.28 in Rain , Thunderstorm Heavy Thunderstorms and Rain
9:56 PM 73.9 °F - 72.0 °F 93% 30.02 in 1.5 mi North 3.5 mph - 1.62 in Rain , Thunderstorm Heavy Thunderstorms and Rain
10:10 PM 73.4 °F - 71.6 °F 94% 30.03 in 1.0 mi North 6.9 mph - 0.39 in Rain , Thunderstorm Heavy Thunderstorms and Rain
10:23 PM 73.4 °F - 71.6 °F 94% 30.02 in 2.0 mi NE 11.5 mph - 0.85 in Rain , Thunderstorm Heavy Thunderstorms and Rain
10:36 PM 73.4 °F - 71.6 °F 94% 30.00 in 3.0 mi ENE 9.2 mph - 1.04 in Rain , Thunderstorm Thunderstorms and Rain
10:56 PM 73.0 °F - 72.0 °F 96% 30.01 in 6.0 mi East 9.2 mph - 1.09 in Rain , Thunderstorm Thunderstorms and Rain
11:28 PM 71.6 °F - 71.6 °F 100% 30.02 in 7.0 mi East 4.6 mph - 0.12 in Rain Light Rain
11:37 PM 73.4 °F - 71.6 °F 94% 30.02 in 10.0 mi ENE 3.5 mph - 0.13 in Rain Light Rain
11:56 PM 73.0 °F - 72.0 °F 96% 30.00 in 10.0 mi ESE 4.6 mph - 0.13 in   Overcast